Weather History for Leesburg, FL

Change the Weather History Date:

Friday, September 28, 2012

  Actual Average Record
Temperature  
Mean Temperature 80 °F -  
Max Temperature 88 °F 87 °F 95 °F (1990)
Min Temperature 73 °F 69 °F 59 °F (1962)
Cooling Degree Days 16    
Growing Degree Days 30 (Base 50)    
Moisture  
Dew Point 73 °F    
Average Humidity 85    
Maximum Humidity 100    
Minimum Humidity 55    
Precipitation  
Precipitation 0.09 in - - ()
Sea Level Pressure  
Sea Level Pressure 30.04 in    
Wind  
Wind Speed 4 mph (NE)    
Max Wind Speed 15 mph    
Max Gust Speed 21 mph    
Visibility 7 miles    
Events Fog , Rain    
Averages and records for this station are not official NWS values.
T = Trace of Precipitation, MM = Missing Value Source: NWS Daily Summary

Daily Weather History Graph

Daily Weather History Graph

Search for Another Location

Airport:

Trip Planner

Search our weather history database for the weather conditions in past years. The results will help you decide how hot, cold, wet, or windy it might be!

Date:

Astronomy

Sep. 28, 2012 Rise Set
Actual Time 7:18 AM EDT 7:15 PM EDT
Civil Twilight 6:55 AM EDT 7:39 PM EDT
Nautical Twilight 6:27 AM EDT 8:06 PM EDT
Astronomical Twilight 6:00 AM EDT 8:34 PM EDT
Moon 6:16 PM EDT (9/28) 5:52 AM EDT (9/28)
Length of Visible Light 12h 44m
Length of Day
11h 56m
Waxing Gibbous, 98% of the Moon is Illuminated
Sep 28
Waxing Gibbous
Sep 29
Full
Oct 8
Last Quarter
Oct 15
New
Oct 21
First Quarter

Hourly Weather History & Observations

Time (EDT) Temp. Heat Index Dew Point Humidity Pressure Visibility Wind Dir Wind Speed Gust Speed Precip Events Conditions
1:53 AM 73.9 °F - 73.0 °F 97% 30.07 in 10.0 mi NE 4.6 mph - N/A   Clear
2:53 AM 73.9 °F - 73.0 °F 97% 30.06 in 10.0 mi Calm Calm - N/A   Clear
3:53 AM 73.9 °F - 73.0 °F 97% 30.04 in 8.0 mi Calm Calm - N/A   Clear
4:53 AM 73.0 °F - 72.0 °F 96% 30.04 in 9.0 mi Calm Calm - N/A   Clear
5:44 AM 73.4 °F - 71.6 °F 94% 30.06 in 10.0 mi North 3.5 mph - N/A   Mostly Cloudy
5:51 AM 73.4 °F - 71.6 °F 94% 30.05 in 10.0 mi Calm Calm - N/A   Mostly Cloudy
5:53 AM 73.0 °F - 72.0 °F 96% 30.05 in 10.0 mi Calm Calm - N/A   Overcast
6:13 AM 73.4 °F - 71.6 °F 94% 30.06 in 2.0 mi North 5.8 mph - N/A   Overcast
6:18 AM 73.4 °F - 71.6 °F 94% 30.05 in 0.8 mi North 5.8 mph - N/A   Overcast
6:53 AM 73.0 °F - 73.0 °F 100% 30.05 in 1.2 mi NNE 5.8 mph - N/A   Overcast
6:56 AM 73.4 °F - 73.4 °F 100% 30.06 in 3.0 mi North 4.6 mph - N/A   Overcast
7:06 AM 73.4 °F - 73.4 °F 100% 30.06 in 1.5 mi NNE 5.8 mph - N/A   Overcast
7:15 AM 73.4 °F - 73.4 °F 100% 30.06 in 0.5 mi NE 4.6 mph - N/A Fog Fog
7:53 AM 73.9 °F - 73.0 °F 97% 30.06 in 0.2 mi NE 3.5 mph - N/A Fog Fog
8:13 AM 73.4 °F - 73.4 °F 100% 30.07 in 2.5 mi NE 4.6 mph - N/A   Overcast
8:20 AM 73.4 °F - 73.4 °F 100% 30.07 in 7.0 mi NE 3.5 mph - N/A   Mostly Cloudy
8:53 AM 75.9 °F - 75.0 °F 97% 30.08 in 10.0 mi NNE 3.5 mph - N/A   Overcast
9:42 AM 80.6 °F 85.4 °F 73.4 °F 79% 30.08 in 10.0 mi NE 8.1 mph - N/A   Scattered Clouds
9:53 AM 80.1 °F 84.5 °F 73.9 °F 81% 30.08 in 10.0 mi NNE 5.8 mph - N/A   Scattered Clouds
10:53 AM 86.0 °F 93.0 °F 73.0 °F 65% 30.09 in 10.0 mi ENE 4.6 mph - N/A   Mostly Cloudy
11:35 AM 84.2 °F 89.6 °F 71.6 °F 66% 30.08 in 10.0 mi NE 6.9 mph - N/A   Mostly Cloudy
11:53 AM 84.0 °F 88.4 °F 70.0 °F 63% 30.08 in 10.0 mi North 4.6 mph - N/A   Mostly Cloudy
12:53 PM 88.0 °F 92.9 °F 70.0 °F 55% 30.05 in 10.0 mi Calm Calm - N/A   Scattered Clouds
1:12 PM 80.6 °F 84.6 °F 71.6 °F 74% 30.05 in 1.8 mi NW 5.8 mph - 0.09 in Rain Heavy Rain
1:14 PM 80.6 °F 84.6 °F 71.6 °F 74% 30.05 in 4.0 mi WNW 5.8 mph - 0.09 in Rain Heavy Rain
1:53 PM 84.9 °F 90.7 °F 72.0 °F 65% 30.02 in 10.0 mi Calm Calm - 0.09 in   Scattered Clouds
2:47 PM 80.6 °F 85.4 °F 73.4 °F 79% 30.01 in 1.5 mi Calm Calm - 0.10 in Rain Heavy Rain
2:58 PM 80.6 °F 86.2 °F 75.2 °F 84% 30.00 in 3.0 mi WNW 3.5 mph - 0.00 in Rain Light Rain
3:53 PM 84.9 °F 90.1 °F 71.1 °F 63% 29.99 in 10.0 mi East 15.0 mph 20.7 mph 0.00 in   Scattered Clouds
4:53 PM 84.9 °F 91.4 °F 73.0 °F 67% 29.98 in 10.0 mi ENE 12.7 mph 18.4 mph 0.00 in   Scattered Clouds
5:53 PM 84.0 °F 89.0 °F 71.1 °F 65% 29.97 in 10.0 mi ENE 11.5 mph - N/A   Clear
6:53 PM 82.0 °F 86.7 °F 72.0 °F 71% 29.99 in 10.0 mi East 8.1 mph - N/A   Clear
7:53 PM 80.1 °F 84.2 °F 73.0 °F 79% 30.01 in 10.0 mi ENE 5.8 mph - N/A   Clear
8:53 PM 79.0 °F - 73.0 °F 82% 30.02 in 10.0 mi East 5.8 mph - N/A   Clear
9:53 PM 77.0 °F - 73.0 °F 88% 30.04 in 10.0 mi NE 4.6 mph - N/A   Clear
10:53 PM 75.9 °F - 73.0 °F 91% 30.04 in 10.0 mi NE 3.5 mph - N/A   Clear
11:53 PM 75.0 °F - 72.0 °F 90% 30.03 in 10.0 mi ENE 4.6 mph - N/A   Clear